| time (UTC) | temp F | wind direction | speed knots | gust knots | rain 1hr in | rain 24hr in | rain mn in | humidity % | barometer mb |
| 20260505014439 | 84 | 0 | 0.0 | 0.0 | 0.00 | 0.00 | 0.00 | 99 | 726.0 |
| 20260505012911 | 86 | 0 | 0.0 | 0.0 | 0.00 | 0.00 | 0.00 | 99 | 728.0 |
| 20260505011341 | 83 | 0 | 0.0 | 0.0 | 0.00 | 0.00 | 0.00 | 99 | 725.0 |
| 20260505005813 | 80 | 0 | 0.0 | 0.0 | 0.00 | 0.00 | 0.00 | 99 | 724.0 |
| 20260505004245 | 79 | 0 | 0.0 | 0.0 | 0.00 | 0.00 | 0.00 | 99 | 723.0 |
| 20260505002717 | 79 | 0 | 0.0 | 0.0 | 0.00 | 0.00 | 0.00 | 99 | 723.0 |
| 20260505001149 | 78 | 0 | 0.0 | 0.0 | 0.00 | 0.00 | 0.00 | 99 | 722.0 |
| 20260504235621 | 79 | 0 | 0.0 | 0.0 | 0.00 | 0.00 | 0.00 | 99 | 723.0 |
| 20260504234052 | 78 | 0 | 0.0 | 0.0 | 0.00 | 0.00 | 0.00 | 99 | 723.0 |
| 20260504232524 | 77 | 0 | 0.0 | 0.0 | 0.00 | 0.00 | 0.00 | 99 | 722.0 |
| 20260504230956 | 76 | 0 | 0.0 | 0.0 | 0.00 | 0.00 | 0.00 | 99 | 721.0 |
| 20260504225427 | 76 | 0 | 0.0 | 0.0 | 0.00 | 0.00 | 0.00 | 99 | 721.0 |
| 20260504223859 | 76 | 0 | 0.0 | 0.0 | 0.00 | 0.00 | 0.00 | 99 | 721.0 |
| 20260504222331 | 75 | 0 | 0.0 | 0.0 | 0.00 | 0.00 | 0.00 | 99 | 721.0 |
| 20260504220803 | 75 | 0 | 0.0 | 0.0 | 0.00 | 0.00 | 0.00 | 99 | 721.0 |
| 20260504215234 | 75 | 0 | 0.0 | 0.0 | 0.00 | 0.00 | 0.00 | 99 | 721.0 |
| 20260504213706 | 75 | 0 | 0.0 | 0.0 | 0.00 | 0.00 | 0.00 | 99 | 721.0 |
| 20260504212138 | 76 | 0 | 0.0 | 0.0 | 0.00 | 0.00 | 0.00 | 99 | 721.0 |
| 20260504210610 | 77 | 0 | 0.0 | 0.0 | 0.00 | 0.00 | 0.00 | 99 | 721.0 |
| 20260504205042 | 77 | 0 | 0.0 | 0.0 | 0.00 | 0.00 | 0.00 | 99 | 722.0 |
| 20260504203513 | 77 | 0 | 0.0 | 0.0 | 0.00 | 0.00 | 0.00 | 99 | 722.0 |
| 20260504201944 | 77 | 0 | 0.0 | 0.0 | 0.00 | 0.00 | 0.00 | 99 | 721.0 |
| 20260504200416 | 76 | 0 | 0.0 | 0.0 | 0.00 | 0.00 | 0.00 | 99 | 721.0 |
| 20260504194848 | 76 | 0 | 0.0 | 0.0 | 0.00 | 0.00 | 0.00 | 99 | 721.0 |
| 20260504193320 | 76 | 0 | 0.0 | 0.0 | 0.00 | 0.00 | 0.00 | 99 | 721.0 |
| 20260504191752 | 76 | 0 | 0.0 | 0.0 | 0.00 | 0.00 | 0.00 | 99 | 721.0 |
| 20260504190224 | 76 | 0 | 0.0 | 0.0 | 0.00 | 0.00 | 0.00 | 99 | 721.0 |
| 20260504184656 | 75 | 0 | 0.0 | 0.0 | 0.00 | 0.00 | 0.00 | 99 | 720.0 |
| 20260504183128 | 76 | 0 | 0.0 | 0.0 | 0.00 | 0.00 | 0.00 | 99 | 721.0 |
| 20260504181600 | 77 | 0 | 0.0 | 0.0 | 0.00 | 0.00 | 0.00 | 99 | 722.0 |
| 20260504180031 | 79 | 0 | 0.0 | 0.0 | 0.00 | 0.00 | 0.00 | 99 | 723.0 |
| 20260504174503 | 79 | 0 | 0.0 | 0.0 | 0.00 | 0.00 | 0.00 | 99 | 723.0 |
| 20260504172935 | 80 | 0 | 0.0 | 0.0 | 0.00 | 0.00 | 0.00 | 99 | 723.0 |
| 20260504171407 | 80 | 0 | 0.0 | 0.0 | 0.00 | 0.00 | 0.00 | 99 | 723.0 |
| 20260504151022 | 84 | 0 | 0.0 | 0.0 | 0.00 | 0.00 | 0.00 | 99 | 726.0 |
| 20260504140830 | 88 | 0 | 0.0 | 0.0 | 0.00 | 0.00 | 0.00 | 99 | 728.0 |
| 20260504130637 | 88 | 0 | 0.0 | 0.0 | 0.00 | 0.00 | 0.00 | 99 | 728.0 |
| 20260504080711 | 109 | 0 | 0.0 | 0.0 | 0.00 | 0.00 | 0.00 | 69 | 742.0 |
| 20260504050133 | 110 | 0 | 0.0 | 0.0 | 0.00 | 0.00 | 0.00 | 80 | 742.0 |
| 20260504044604 | 110 | 0 | 0.0 | 0.0 | 0.00 | 0.00 | 0.00 | 79 | 743.0 |
| 20260504043036 | 112 | 0 | 0.0 | 0.0 | 0.00 | 0.00 | 0.00 | 82 | 744.0 |
| 20260504041508 | 110 | 0 | 0.0 | 0.0 | 0.00 | 0.00 | 0.00 | 84 | 742.0 |
| 20260504035940 | 110 | 0 | 0.0 | 0.0 | 0.00 | 0.00 | 0.00 | 83 | 743.0 |
| 20260504034412 | 106 | 0 | 0.0 | 0.0 | 0.00 | 0.00 | 0.00 | 89 | 740.0 |
| 20260504032844 | 107 | 0 | 0.0 | 0.0 | 0.00 | 0.00 | 0.00 | 89 | 741.0 |
| 20260504031316 | 108 | 0 | 0.0 | 0.0 | 0.00 | 0.00 | 0.00 | 87 | 741.0 |
| 20260504025747 | 108 | 0 | 0.0 | 0.0 | 0.00 | 0.00 | 0.00 | 89 | 741.0 |
| 20260504024219 | 107 | 0 | 0.0 | 0.0 | 0.00 | 0.00 | 0.00 | 90 | 740.0 |
| 20260504022651 | 111 | 0 | 0.0 | 0.0 | 0.00 | 0.00 | 0.00 | 87 | 743.0 |
| 20260504021123 | 105 | 0 | 0.0 | 0.0 | 0.00 | 0.00 | 0.00 | 97 | 739.0 |